Wind_Speed
17 15 12 12 15 16 17 19 22 23 24 23 24 28 26 30 32 27 27 26 25 25 24 23 21 21 22 18 15 15 14 13 13 12 11 11 10 11 13 13 11 10 9
19 15 11 10 13 15 16 18 22 24 24 21 19 13 29 36 31 29 29 26 28 24 23 22 18 17 19 18 17 15 13 13 13 12 11 11 11 12 13 13 12 11 9
20 17 12 10 12 15 17 20 22 25 24 22 16 15 29 32 30 30 29 27 26 25 21 20 20 19 18 18 18 15 14 13 13 13 12 12 13 14 14 14 13 11 9
23 20 15 12 12 14 18 20 23 24 23 20 14 24 23 29 30 29 27 27 27 26 26 23 25 24 22 18 20 17 15 14 13 13 13 14 14 14 15 14 14 13 12
25 22 18 14 13 14 17 20 22 25 23 21 18 17 15 30 29 28 26 26 25 22 22 22 23 24 21 20 20 18 16 15 15 14 15 15 16 16 16 16 15 14 12
26 24 22 17 14 14 17 19 21 25 24 23 22 20 23 14 25 30 27 26 27 26 25 22 23 23 21 20 20 20 17 17 16 16 16 16 16 16 16 15 14 13 12
28 26 24 21 17 16 16 19 21 26 26 27 27 26 25 22 24 30 19 22 29 29 25 24 23 22 22 22 21 21 19 19 18 17 16 16 15 16 16 15 14 13 13
31 27 26 22 20 19 19 21 24 26 29 28 30 26 28 28 27 27 29 25 28 33 29 26 24 23 22 24 21 21 20 18 17 17 16 17 16 17 16 16 15 15 14
30 28 26 24 22 21 22 23 25 26 29 29 32 30 33 34 30 25 35 32 35 40 31 27 24 24 24 24 23 23 20 19 18 18 18 18 18 18 18 17 17 17 16
32 28 27 25 23 22 24 25 25 28 29 31 31 32 36 33 32 30 29 35 45 41 34 30 26 25 24 24 24 23 21 20 19 19 19 20 19 19 19 18 18 17 16
23 29 27 25 24 24 24 24 24 27 29 28 30 31 33 32 34 32 35 38 44 35 35 31 29 25 24 25 25 24 22 20 19 20 21 21 21 20 20 19 18 18 18
27 30 27 25 24 25 25 23 24 27 28 29 31 33 33 32 34 32 35 37 43 43 39 28 28 25 25 26 25 24 23 22 22 22 23 23 22 22 21 20 20 20 19
28 29 25 24 25 26 25 24 26 31 30 30 31 31 33 32 33 33 36 35 47 43 38 31 29 26 28 28 27 26 26 25 24 24 26 26 26 25 23 23 23 23 23
29 27 26 25 25 26 24 24 27 31 31 31 32 28 25 29 29 34 35 38 46 43 36 29 28 30 31 28 27 27 27 25 24 27 29 29 28 26 23 26 28 29 29
30 30 26 25 25 25 24 24 26 28 31 33 34 32 31 34 31 36 31 35 43 38 39 34 33 31 28 27 26 26 26 24 26 29 30 29 28 29 30 33 33 33 32
32 28 26 24 24 24 22 25 27 28 31 31 34 38 40 34 32 31 31 36 35 33 25 33 33 29 30 28 27 27 24 26 27 27 29 29 30 31 34 36 35 33 35
29 27 25 24 23 22 23 26 25 27 30 35 35 39 35 35 34 37 37 39 30 33 28 31 44 28 26 24 24 23 23 24 29 27 29 28 29 35 36 35 35 37 34
29 27 24 24 22 20 24 26 25 31 32 33 34 37 32 34 37 31 35 33 29 25 27 29 34 33 31 28 28 30 32 29 28 25 28 29 31 31 27 32 34 36 37
29 27 25 21 19 20 24 21 20 22 28 26 17 19 29 27 28 33 31 34 24 27 26 30 32 38 38 38 33 31 30 35 32 32 33 36 36 37 32 29 33 32 34
30 29 23 18 18 20 22 17 17 14 15 14 11 17 20 25 30 26 37 30 31 28 28 32 35 31 31 29 33 32 36 37 36 33 36 34 35 31 30 32 31 34 35
30 26 19 16 18 19 20 16 12 13 14 20 18 17 22 19 28 23 34 29 28 30 33 35 33 35 32 32 33 32 34 35 36 27 28 25 30 28 33 33 34 32 36
23 19 16 14 15 19 19 16 13 15 12 15 13 15 15 23 23 23 24 35 31 31 31 27 27 28 27 28 28 27 25 22 22 23 29 26 27 28 33 33 33 37 37
21 20 17 16 16 18 19 15 13 15 16 9 6 5 20 17 26 33 27 30 30 25 29 24 23 22 20 23 20 20 21 25 28 29 33 32 31 35 38 40 37 40 40
21 19 17 17 20 18 20 17 12 12 14 15 14 9 12 15 27 27 21 25 30 27 27 30 28 25 24 25 24 23 25 27 28 31 29 32 33 34 40 42 42 45 44
15 16 16 17 22 22 20 20 18 18 21 16 20 21 20 16 23 21 28 27 32 38 31 28 29 28 27 27 30 28 29 31 32 33 34 37 40 40 42 44 47 43 41
18 18 19 23 23 20 18 19 23 25 22 25 25 22 24 20 23 26 27 25 27 29 29 31 28 32 31 34 31 32 34 37 34 37 38 39 41 41 40 37 37 37 38
Wind_Direction
262 259 258 263 265 257 256 258 256 256 257 257 263 266 249 222 195 193 201 198 207 207 214 218 231 239 234 250 237 227 231 236 236 238 230 227 223 210 205 202 205 206 207
259 258 257 265 269 262 256 253 252 253 251 258 261 255 228 204 192 188 204 206 209 206 218 222 232 236 238 235 234 228 232 236 237 235 233 222 212 213 208 202 206 211 218
255 256 258 269 270 259 255 248 249 254 253 255 259 228 223 197 193 192 199 204 214 215 223 227 242 244 230 234 233 231 231 232 236 235 224 218 213 210 208 209 208 213 223
250 257 260 273 278 260 253 250 248 250 253 250 247 219 232 213 197 199 201 214 220 227 235 240 251 243 238 232 231 230 230 229 230 226 220 216 215 214 209 211 214 217 223
246 255 259 268 282 272 259 251 249 248 251 243 240 215 250 202 207 206 211 218 221 218 234 239 242 244 236 228 234 231 226 225 222 218 216 215 215 214 214 213 218 225 233
242 251 258 265 279 285 267 257 252 248 248 244 239 229 236 235 217 216 217 226 230 233 238 243 243 241 234 231 236 233 225 224 216 214 216 217 219 220 216 217 224 232 243
239 247 255 262 276 283 270 258 251 248 236 241 233 230 232 227 229 222 247 236 234 231 238 240 242 241 238 233 231 232 225 222 216 213 217 221 221 224 224 226 233 239 244
236 242 252 260 268 278 273 263 253 246 236 237 233 238 230 230 230 240 244 233 243 235 235 241 239 235 232 235 228 230 228 222 222 221 222 223 221 222 225 230 237 242 246
229 239 249 258 266 278 277 268 251 241 242 236 238 237 232 234 236 251 240 232 241 232 233 238 234 233 233 232 225 226 226 225 226 225 224 220 220 223 227 233 239 244 249
220 234 246 256 267 276 277 268 244 237 236 240 238 239 236 245 247 256 249 264 219 225 230 230 230 230 230 228 227 222 221 223 227 227 224 223 223 228 232 235 242 249 255
225 233 243 257 268 278 279 265 239 234 235 235 238 239 237 247 253 252 256 225 218 226 233 220 228 225 227 224 221 222 222 221 225 227 226 226 226 231 236 239 245 251 255
239 232 242 255 270 279 278 260 236 234 233 239 235 239 241 246 254 256 254 235 237 246 237 221 229 225 223 223 221 222 222 219 221 225 227 229 229 233 236 242 248 252 254
242 233 246 258 271 279 273 253 236 232 234 237 239 241 245 251 257 250 250 247 246 227 227 208 225 224 221 219 221 221 221 219 223 228 230 231 230 233 237 244 246 246 258
239 235 244 256 272 277 268 251 238 230 232 233 236 234 257 259 268 256 254 262 221 221 223 215 221 224 219 215 215 219 222 223 226 233 234 233 235 237 239 248 247 251 258
231 233 244 256 271 272 260 249 240 236 237 239 243 249 256 262 269 263 254 217 221 230 220 207 215 219 216 216 214 220 225 231 237 239 240 242 242 244 243 243 247 252 259
229 232 241 255 268 265 259 246 240 241 243 244 249 254 258 253 261 236 232 222 232 242 233 211 211 219 220 219 219 225 231 235 238 239 241 241 245 248 252 252 254 259 264
230 232 239 255 259 260 257 246 242 247 251 253 252 252 255 248 256 242 232 231 244 236 237 222 213 216 220 213 225 223 221 232 241 244 243 253 258 258 251 255 258 262 265
228 228 239 253 257 259 256 250 251 247 251 261 254 262 246 250 250 236 220 233 233 234 205 200 200 205 209 217 221 217 230 238 240 248 254 255 258 273 254 260 260 263 264
221 226 238 251 254 259 257 257 260 253 249 265 245 235 240 227 230 220 230 226 230 220 215 217 218 215 221 220 227 229 242 232 241 248 252 257 257 264 259 248 260 263 266
221 226 234 243 249 255 262 266 258 239 256 262 244 249 235 246 239 229 231 234 233 226 211 221 230 229 231 231 228 231 239 248 247 253 266 265 252 258 250 257 267 277 273
222 224 233 245 249 253 262 269 248 236 258 275 255 222 230 220 219 230 222 229 226 224 215 235 225 244 243 248 244 250 256 250 259 257 257 254 254 250 260 260 265 268 257
216 216 223 237 252 259 260 268 243 223 249 266 276 222 229 243 221 234 232 231 236 229 237 233 245 247 239 244 249 246 241 252 255 261 257 254 269 261 260 268 263 272 275
208 212 220 233 248 255 259 254 253 217 235 251 258 265 233 239 225 219 220 219 230 226 234 243 246 259 237 237 262 251 242 246 258 257 259 261 266 262 265 270 273 276 272
215 224 231 241 257 264 263 249 227 215 221 236 257 244 235 218 218 237 229 225 235 231 237 248 248 246 247 239 245 245 255 263 258 265 257 259 263 271 272 273 276 281 278
244 247 254 257 261 264 264 255 229 230 235 229 238 235 244 236 238 240 239 242 233 237 243 239 236 240 241 236 240 252 255 255 263 264 262 263 271 270 271 274 277 279 278
229 241 256 267 272 267 262 252 247 235 235 244 240 238 240 236 230 237 247 252 240 238 238 241 241 242 238 247 254 244 256 264 255 260 273 266 265 269 271 273 275 278 280
Height
3112 3111 3110 3110 3111 3110 3111 3113 3114 3114 3115 3116 3118 3117 3116 3120 3122 3129 3137 3142 3145 3146 3149 3152 3154 3156 3157 3158 3160 3161 3163 3165 3166 3168 3169 3170 3172 3173 3175 3178 3180 3182 3184
3108 3108 3106 3106 3107 3105 3107 3108 3109 3110 3111 3112 3112 3111 3110 3113 3118 3126 3134 3138 3142 3144 3146 3149 3150 3153 3154 3155 3157 3158 3160 3162 3164 3165 3166 3168 3170 3172 3174 3176 3178 3180 3182
3104 3104 3102 3102 3102 3101 3102 3104 3105 3106 3106 3108 3108 3107 3109 3108 3115 3122 3130 3135 3139 3141 3143 3145 3147 3149 3150 3152 3154 3156 3157 3159 3161 3163 3163 3165 3167 3169 3172 3174 3176 3178 3180
3099 3100 3099 3098 3097 3097 3098 3099 3101 3101 3102 3104 3105 3106 3107 3107 3113 3118 3124 3131 3134 3137 3140 3141 3143 3145 3146 3149 3150 3152 3154 3155 3157 3159 3161 3163 3165 3168 3170 3172 3174 3175 3176
3093 3095 3095 3094 3093 3093 3093 3094 3096 3097 3098 3100 3102 3104 3106 3104 3111 3115 3121 3126 3129 3132 3136 3137 3139 3142 3142 3145 3148 3149 3150 3151 3153 3155 3158 3160 3163 3165 3167 3168 3171 3172 3174
3087 3089 3090 3090 3089 3088 3089 3089 3091 3092 3094 3097 3099 3100 3103 3104 3108 3112 3116 3121 3124 3128 3131 3132 3135 3137 3139 3141 3145 3146 3147 3148 3149 3152 3155 3158 3160 3162 3164 3166 3168 3170 3171
3082 3083 3085 3084 3084 3085 3085 3085 3085 3087 3089 3092 3094 3097 3100 3103 3105 3107 3111 3116 3119 3123 3126 3128 3131 3133 3135 3138 3140 3143 3143 3145 3147 3150 3152 3155 3157 3160 3162 3164 3165 3167 3168
3074 3077 3079 3079 3079 3079 3079 3080 3080 3081 3084 3087 3089 3093 3095 3099 3101 3104 3107 3109 3114 3118 3120 3123 3126 3129 3131 3134 3135 3138 3141 3143 3145 3148 3149 3152 3154 3156 3159 3160 3162 3164 3165
3065 3069 3072 3074 3074 3072 3073 3074 3075 3077 3078 3081 3084 3087 3089 3091 3095 3097 3101 3103 3107 3112 3115 3118 3121 3124 3126 3129 3131 3134 3137 3140 3142 3144 3146 3148 3150 3152 3154 3156 3159 3160 3161
3057 3060 3066 3067 3067 3067 3067 3068 3069 3070 3073 3076 3078 3081 3084 3087 3089 3093 3095 3097 3098 3104 3109 3113 3115 3118 3121 3124 3127 3130 3132 3135 3138 3140 3142 3144 3146 3149 3151 3152 3154 3156 3157
3045 3055 3059 3060 3061 3060 3060 3061 3062 3064 3067 3070 3074 3076 3080 3082 3083 3086 3088 3088 3092 3098 3103 3107 3110 3112 3116 3119 3122 3125 3128 3130 3133 3136 3138 3140 3142 3144 3147 3148 3150 3152 3153
3042 3049 3052 3054 3053 3052 3053 3054 3056 3059 3062 3064 3068 3070 3073 3075 3077 3080 3083 3086 3088 3091 3096 3101 3105 3107 3111 3115 3118 3120 3123 3126 3128 3131 3134 3136 3137 3139 3141 3143 3145 3146 3148
3038 3043 3046 3046 3047 3046 3047 3048 3049 3053 3055 3058 3061 3064 3067 3069 3071 3073 3075 3077 3080 3084 3087 3094 3098 3101 3105 3109 3112 3115 3118 3120 3123 3127 3129 3130 3132 3134 3136 3138 3139 3140 3141
3033 3037 3039 3039 3040 3040 3041 3042 3043 3046 3049 3052 3054 3057 3059 3061 3062 3065 3066 3067 3069 3075 3080 3088 3092 3097 3100 3103 3106 3109 3113 3115 3118 3121 3123 3124 3127 3128 3130 3131 3132 3133 3134
3027 3029 3031 3033 3035 3034 3035 3036 3038 3040 3043 3046 3047 3049 3051 3053 3055 3055 3058 3061 3066 3070 3074 3080 3085 3093 3096 3099 3101 3104 3108 3111 3113 3115 3117 3120 3122 3122 3122 3124 3125 3126 3127
3019 3022 3025 3028 3028 3029 3029 3031 3032 3034 3037 3038 3040 3041 3043 3045 3049 3049 3052 3057 3061 3065 3070 3076 3081 3088 3091 3094 3097 3100 3104 3106 3108 3109 3111 3112 3114 3115 3116 3118 3119 3120 3121
3013 3017 3019 3022 3023 3023 3024 3025 3026 3027 3029 3031 3032 3033 3033 3035 3039 3043 3047 3051 3055 3059 3064 3069 3075 3082 3086 3089 3093 3096 3099 3100 3101 3102 3105 3107 3108 3108 3109 3111 3112 3113 3113
3008 3011 3014 3017 3017 3017 3018 3019 3019 3021 3022 3022 3021 3022 3024 3026 3032 3035 3041 3046 3051 3054 3059 3064 3070 3075 3079 3084 3087 3089 3090 3091 3093 3096 3098 3100 3101 3101 3101 3102 3103 3105 3105
3000 3004 3008 3011 3011 3012 3014 3012 3012 3014 3015 3014 3010 3013 3016 3021 3025 3030 3035 3041 3046 3051 3054 3059 3064 3068 3072 3077 3080 3080 3082 3083 3084 3087 3090 3091 3092 3093 3093 3095 3096 3095 3096
2993 2998 3002 3004 3005 3007 3008 3007 3008 3009 3010 3009 3007 3010 3012 3015 3019 3024 3031 3035 3041 3046 3050 3054 3058 3062 3066 3069 3070 3071 3073 3075 3077 3079 3080 3081 3082 3083 3085 3086 3087 3087 3086
2989 2992 2996 2999 3001 3003 3004 3003 3004 3004 3006 3005 3003 3006 3010 3012 3016 3019 3025 3030 3035 3041 3045 3049 3052 3055 3057 3059 3061 3063 3064 3066 3068 3070 3071 3072 3074 3076 3077 3076 3076 3077 3076
2984 2987 2990 2993 2996 2999 2999 2998 2999 3001 3002 3002 3002 3003 3006 3009 3011 3015 3019 3024 3030 3035 3039 3041 3044 3046 3049 3051 3053 3054 3056 3057 3059 3062 3064 3064 3065 3065 3066 3066 3067 3067 3067
2979 2980 2984 2987 2991 2993 2995 2994 2995 2997 3000 3001 3001 3002 3003 3005 3009 3013 3017 3022 3025 3029 3032 3035 3037 3040 3042 3044 3047 3048 3050 3052 3053 3054 3056 3056 3057 3057 3057 3055 3056 3056 3055
2973 2975 2978 2982 2986 2989 2990 2991 2992 2994 2996 2998 3000 3002 3003 3006 3008 3011 3012 3015 3019 3022 3026 3029 3032 3033 3035 3038 3040 3042 3044 3045 3045 3045 3046 3046 3046 3047 3046 3044 3044 3044 3044
2967 2970 2973 2975 2980 2983 2985 2987 2989 2991 2993 2995 2996 2998 3001 3003 3004 3007 3009 3012 3014 3017 3019 3021 3023 3027 3029 3032 3034 3035 3035 3036 3036 3036 3036 3036 3037 3037 3035 3035 3033 3032 3031
2961 2965 2968 2970 2972 2975 2978 2981 2983 2985 2989 2990 2992 2995 2996 2998 2999 3001 3004 3006 3008 3010 3011 3015 3016 3019 3021 3023 3023 3025 3024 3025 3026 3026 3027 3027 3027 3026 3024 3024 3023 3022 3021